This demonstration page uses our WeatherBlox Daily Observations layout. Learn more.

Left ArrowRight Arrow

34.02893, -84.19858

Hourly Observations for April 12, 2019

Temp ( °F °C ) Dew Point ( °F °C ) Humidity (%) Winds ( mph kmh ) Pressure ( in mb ) Visibility ( mi km ) Precip ( " mm )
12:53 am 00:53 Cloudy 70 21.1 61 16.1 73 73 SSE 12 19 29.91 1013 10 16 0.00 0.00
1:53 am 01:53 Cloudy 69 20.6 63 17.2 81 81 SE 10 17 29.90 1013 10 16 0.00 0.03
2:53 am 02:53 Cloudy 68 20 62 16.7 81 81 SSE 9 15 29.91 1013 10 16 0.00 0.00
3:17 am 03:17 Cloudy 68 20 62 16.7 81 81 SSE 8 13 29.92 1013 10 16 0.00 0.00
3:30 am 03:30 Cloudy 68 20 62 16.7 81 81 SE 7 11 29.91 1013 10 16 0.00 0.00
3:53 am 03:53 Cloudy 68 20 62 16.7 81 81 VRB 7 11 29.89 1012 10 16 0.00 0.00
4:53 am 04:53 Cloudy 68 20 62 16.7 81 81 SSE 6 9 29.90 1012 10 16 0.00 0.00
5:53 am 05:53 Cloudy 67 19.4 63 17.2 87 87 SE 7 11 29.91 1013 10 16 0.00 0.00
6:28 am 06:28 Cloudy 67 19.4 63 17.2 87 87 SE 8 13 29.93 1013 10 16 0.00 0.00
6:44 am 06:44 Cloudy 67 19.4 63 17.2 87 87 VRB 7 11 29.94 1014 10 16 0.00 0.00
6:53 am 06:53 Cloudy 67 19.4 63 17.2 87 87 SSE 8 13 29.92 1013 10 16 0.00 0.00
7:14 am 07:14 Cloudy with Light Rain 66 18.9 64 17.8 93 93 SSE 8 13 29.96 1014 3 5 0.06 1.52
7:53 am 07:53 Cloudy 66 18.9 64 17.8 93 93 SSE 6 9 29.96 1015 9 14 0.06 1.52
8:53 am 08:53 Cloudy 66 18.9 65 18.3 96 96 S 6 9 29.98 1015 9 14 0.04 1.02
9:33 am 09:33 Cloudy 67 19.4 66 18.9 97 97 VRB 5 7 30.01 1016 10 16 0.00 0.03
9:53 am 09:53 Cloudy 68 20 66 18.9 93 93 S 8 13 29.98 1015 10 16 0.00 0.03
10:53 am 10:53 Mostly Cloudy 69 20.6 65 18.3 87 87 S 8 13 30.00 1016 10 16 0.00 0.03
11:08 am 11:08 Mostly Cloudy 70 21.1 65 18.3 84 84 S 7 11 30.00 1016 10 16 0.00 0.00
11:53 am 11:53 Mostly Cloudy 71 21.7 64 17.8 79 79 VRB 7 11 30.00 1016 10 16 0.00 0.00
12:03 pm 12:03 Mostly Cloudy 71 21.7 64 17.8 79 79 SSW 7 11 30.01 1016 10 16 0.00 0.00
12:53 pm 12:53 Partly Cloudy 74 23.3 64 17.8 71 71 SSW 12 19 29.98 1015 10 16 0.00 0.00
1:53 pm 13:53 Mostly Cloudy 75 23.9 61 16.1 62 62 SSW 12 19 29.98 1015 10 16 0.00 0.00
2:53 pm 14:53 Sunny 76 24.4 59 15 56 56 SSW 14 22 29.96 1015 10 16 0.00 0.00
3:53 pm 15:53 Mostly Sunny 75 23.9 57 13.9 54 54 S 12 19 29.96 1015 10 16 0.00 0.00
4:53 pm 16:53 Sunny 75 23.9 56 13.3 52 52 SSW 9 15 29.96 1014 10 16 0.00 0.00
5:53 pm 17:53 Sunny 74 23.3 56 13.3 54 54 S 7 11 29.96 1014 10 16 0.00 0.00
6:53 pm 18:53 Sunny 72 22.2 58 14.4 61 61 S 7 11 29.96 1015 10 16 0.00 0.00
7:53 pm 19:53 Sunny 69 20.6 58 14.4 68 68 SW 5 7 29.97 1015 10 16 0.00 0.00
8:53 pm 20:53 Clear 66 18.9 59 15 78 78 Calm 29.98 1015 10 16 0.00 0.00
9:53 pm 21:53 Clear 64 17.8 59 15 84 84 Calm 29.99 1016 10 16 0.00 0.00
10:53 pm 22:53 Clear 63 17.2 59 15 87 87 Calm 30.00 1016 10 16 0.00 0.00
11:53 pm 23:53 Clear 62 16.7 58 14.4 86 86 Calm 30.01 1016 10 16 0.00 0.00

Powered by AerisWeather